Regional Weather Roundup
Issued by NWS Boston, MA

Current Version | Previous Version | Text Only | Print | Product List | Glossary Off
Versions: 1 2 3 4 5 6 7 8 9 10 11 12 13 14 15 16 17 18 19 20 21 22 23 24 25 26 27 28 29 30 31 32 33 34 35 36 37 38 39 40 41 42 43 44 45 46 47 48 49 50
200 ASUS41 KBOX 240610 RWRBOX REGIONAL WEATHER ROUNDUP NATIONAL WEATHER SERVICE BOSTON/NORTON MA 100 AM EST THU JAN 24 2019 NOTE: "FAIR" INDICATES FEW OR NO CLOUDS BELOW 12,000 FEET WITH NO SIGNIFICANT WEATHER AND/OR OBSTRUCTIONS TO VISIBILITY. MAZALL-240700- EASTERN MASSACHUSETTS CITY SKY/WX TMP DP RH WIND PRES REMARKS BOSTON CLOUDY 49 44 83 SW13 29.92F 6HR MIN TEMP: 42; 6HR MAX TEMP: 50; 6HR PCP: TRACE; BEVERLY LGT RAIN 48 43 82 S12 29.90F LAWRENCE LGT RAIN 47 43 86 S8 29.89F BEDFORD LGT RAIN 51 45 79 SW14 29.89F BLUE HILL N/A 47 46 97 S20G33 29.89F NORWOOD CLOUDY 52 48 86 SW8G18 29.92F MARSHFIELD CLOUDY 54 50 87 SW18G29 29.93F PLYMOUTH CLOUDY 51 47 86 SW15G35 29.95F TAUNTON CLOUDY 51 47 86 SW13G24 29.96F NEW BEDFORD CLOUDY 50 49 96 SW16G23 29.97F $$ MAZALL-240700- CAPE COD AND THE ISLANDS CITY SKY/WX TMP DP RH WIND PRES REMARKS FALMOUTH CLOUDY 52 46 82 S23G32 29.98S HYANNIS CLOUDY 43 40 89 S9 29.99F FOG CHATHAM CLOUDY 44 41 89 SW12G21 30.01F PROVINCETOWN CLOUDY 45 42 89 S14G21 29.98F NANTUCKET CLOUDY 44 42 93 S17 30.02F MARTHAS VNYRD CLOUDY 48 46 93 S21G29 29.98F $$ MAZALL-240700- CENTRAL AND WESTERN MASSACHUSETTS CITY SKY/WX TMP DP RH WIND PRES REMARKS WORCESTER LGT RAIN 46 45 96 SW26G38 29.87F FOG 6HR MIN TEMP: 35; 6HR MAX TEMP: 46; 6HR PCP: 0.04; FITCHBURG LGT RAIN 47 45 93 S6 29.87F FOG ORANGE LGT RAIN 42 39 89 S9 29.89F FOG SPRINGFIELD DRIZZLE 35 33 93 CALM 29.88F WESTFIELD LGT RAIN 34 32 92 CALM 29.89F FOG NORTH ADAMS RAIN 44 40 85 VRB6 29.84F FOG PITTSFIELD LGT RAIN 37 34 89 N3 29.84F FOG $$ RIZALL-240700- RHODE ISLAND CITY SKY/WX TMP DP RH WIND PRES REMARKS PROVIDENCE CLOUDY 50 48 93 SW15G26 29.96F 6HR MIN TEMP: 41; 6HR MAX TEMP: 50; 6HR PCP: 0.01; NEWPORT CLOUDY 47 46 97 SW8 29.98F BLOCK ISLAND CLOUDY 47 46 97 S21 N/A SMITHFIELD CLOUDY 49 47 93 SW12G32 29.93F WESTERLY CLOUDY 48 47 96 SW8 29.98F $$ CTZALL-240700- CONNECTICUT CITY SKY/WX TMP DP RH WIND PRES REMARKS BRADLEY INTL LGT RAIN 37 36 96 NW6 29.89F FOG 6HR MIN TEMP: 35; 6HR MAX TEMP: 41; 6HR PCP: TRACE; HARTFORD CLOUDY 49 46 90 S16G29 29.90F FOG BRIDGEPORT CLOUDY 44 42 93 SW9 29.93F DANBURY LGT RAIN 46 43 89 SE7 29.89F GROTON CLOUDY 45 43 93 SW6 29.96F NEW HAVEN CLOUDY 47 44 90 SW7 29.93F CHESTER CLOUDY 46 46 100 S10G16 29.94F FOG MERIDEN LGT RAIN 45 43 93 S9 29.92F FOG WILLIMANTIC CLOUDY 48 47 96 S10 29.94F OXFORD CLOUDY 45 44 97 S10 29.90F $$ MEZ002-015-021-024-NHZ003-005-008-011-012-014-VTZ005-008-240700- NORTHERN NEW ENGLAND CITY SKY/WX TMP DP RH WIND PRES REMARKS PORTLAND ME CLOUDY 41 33 73 S7 29.88F 6HR MIN TEMP: 34; 6HR MAX TEMP: 41; BANGOR ME FRZ RAIN 25 23 92 NW3 29.84F FOG CONCORD NH LGT RAIN 37 32 82 MISG 29.86F MANCHESTER NH LGT RAIN 40 37 89 S5 29.86F NASHUA NH LGT RAIN 35 35 100 CALM 29.88F FOG PORTSMOUTH NH LGT RAIN 43 40 87 CALM 29.87 FOG JAFFREY NH LGT RAIN 41 40 96 SW13G20 29.86F FOG KEENE NH LGT RAIN 34 34 100 CALM 29.87F FOG BURLINGTON VT CLOUDY 40 35 83 S25G37 29.69F WCI 29 MT. WASHINGTON FRZ RAIN 28 28 100 W61G69 N/A VSB 0 WCI 8 $$ NYZ052-076-240700- EASTERN NEW YORK CITY SKY/WX TMP DP RH WIND PRES REMARKS ALBANY LGT RAIN 40 34 79 S12 29.82F 6HR MIN TEMP: 37; 6HR MAX TEMP: 40; 6HR PCP: 0.17; NEW YORK CITY LGT RAIN 48 43 82 S7 29.90F 6HR MIN TEMP: 42; 6HR MAX TEMP: 48; 6HR PCP: TRACE; $$ ANZALL-240700- MARINE OBSERVATIONS STATION/POSITION TIME TEMP WIND PRES VSBY WAVE AIR SEA DIR/SP/G HT/PER (UTC) (F) (DEG/KT/KT) (MB) (MI) (FT/S) BOSTON BUOY 0550 49 41 200/ 19/ 23 1012.8F 3/ 3 BUZZARDS BAY 0500 47 190/ 28/ 29 1015.8F NANTUCKET SOUND 0550 42 33 190/ 19/ 21 1015.4F 2/ 3 MASS BAY-STELLWA 0504 46 40 210/ 19/ 23 1012.0F 1 7/8 4/ 5 ISLE OF SHOALS 0600 45 190/ 24/ 25 1011.4F S OF BLOCK IS 0530 44 N/A 7/ 6 $$ ......................KEY......................... SKY/WX - SKY CONDITION/PRESENT WEATHER TMP - TEMPERATURE IN FAHRENHEIT DWPT - DEWPOINT IN FAHRENHEIT RH - RELATIVE HUMIDITY IN PERCENT WIND - DIRECTION AND SPEED IN MPH PRES - MEAN SEA LEVEL PRESSURE IN INCHES OF HG WCI - WIND CHILL INDEX VSB - VISIBILITY IN MILES HX - HEAT INDEX TC - TEMPERATURE IN CELSIUS VRB - VARIABLE WIND DIRECTION N/A - NOT AVAILABLE

USA.gov is the U.S. government's official web portal to all federal, state and local government web resources and services.